Location: Andershausen
(51.8462°N, 9.8595°E)
Time: 06:44:04
(UTC+00:00)

Cosmos 921 Rocket - Pass Details

Date: 18 November 2025
Orbit: 563 x 621 km, 75.8° (Epoch: 11 December)

Event Time Altitude Azimuth Distance (km) Brightness Sun altitude
Rises 15:53:02 0° 201° (SSW) 2,840 7.3 -4.5°
Reaches altitude 10° 15:55:14 10° 201° (SSW) 1,951 6.4 -4.8°
Maximum altitude 15:59:36 87° 288° (WNW) 621 3.1 -5.5°
Drops below altitude 10° 16:04:04 10° 21° (NNE) 1,994 5.3 -6.1°
Sets 16:06:20 0° 22° (NNE) 2,909 6.1 -6.4°
